Ft Lauderdale, FL

2:44 AM EDT on October 23, 2017 (GMT -0400)
Fort Lauderdale-Hollywood International

Weather History for KFLL - November, 2013

Change the Weather History Date:

Thursday, November 21, 2013

  Actual Average Record
Temperature  
Mean Temperature 76 °F 75 °F  
Max Temperature 82 °F 81 °F 87 °F (1986)
Min Temperature 70 °F 69 °F 38 °F (1914)
Degree Days  
Heating Degree Days 0 0  
Month to date heating degree days 0 0  
Since 1 July heating degree days 0 0  
Cooling Degree Days 11 10  
Month to date cooling degree days 263 236  
Year to date cooling degree days 4290 4430  
Growing Degree Days 26 (Base 50)    
Moisture  
Dew Point 72 °F    
Average Humidity 83    
Maximum Humidity 100    
Minimum Humidity 65    
Precipitation  
Precipitation 5.02 in 0.07 in 5.02 in (2013)
Month to date precipitation 8.21 2.44  
Year to date precipitation 72.55 58.92  
Snow  
Snow 0.00 in - - ()
Month to date snowfall 0.0  
Since 1 July snowfall 0.0  
Since 1 September snowfall 0.0  
Snow Depth 0.00 in    
Sea Level Pressure  
Sea Level Pressure 30.09 in    
Wind  
Wind Speed 9 mph (East)    
Max Wind Speed 26 mph    
Max Gust Speed 32 mph    
Visibility 5 miles    
Events Fog , Rain , Thunderstorm    
T = Trace of Precipitation, MM = Missing Value Source: NWS Daily Summary

Daily Weather History Graph

Daily Weather History Graph

Search for Another Location

Airport or City:

Trip Planner

Search our weather history database for the weather conditions in past years. The results will help you decide how hot, cold, wet, or windy it might be!

Date:

Astronomy

Nov. 21, 2013 Rise Set
Actual Time 6:43 AM EST 5:29 PM EST
Civil Twilight 6:18 AM EST 5:53 PM EST
Nautical Twilight 5:50 AM EST 6:22 PM EST
Astronomical Twilight 5:23 AM EST 6:49 PM EST
Moon 9:01 PM EST (11/21) 9:50 AM EST (11/21)
Length of Visible Light 11h 35m
Length of Day
10h 45m
Waning Gibbous, 85% of the Moon is Illuminated
Nov 21
Waning Gibbous
Nov 25
Last Quarter
Dec 2
New
Dec 9
First Quarter
Dec 17
Full

Hourly Weather History & Observations

Time (EST) Temp. Heat Index Dew Point Humidity Pressure Visibility Wind Dir Wind Speed Gust Speed Precip Events Conditions
12:15 AM 73.4 °F - 73.4 °F 100% 30.05 in 1.0 mi North 5.8 mph - 0.02 in Rain Heavy Rain
12:40 AM 71.6 °F - 71.6 °F 100% 30.06 in 0.5 mi North 4.6 mph - 0.83 in Fog , Rain Heavy Rain
12:53 AM 71.1 °F - 71.1 °F 100% 30.06 in 0.8 mi East 8.1 mph - 1.25 in Rain Heavy Rain
1:00 AM 71.6 °F - 71.6 °F 100% 30.06 in 1.5 mi ESE 10.4 mph - 0.15 in Rain Heavy Rain
1:20 AM 71.6 °F - 71.6 °F 100% 30.06 in 2.0 mi East 5.8 mph - 0.46 in Rain Rain
1:48 AM 69.8 °F - 69.8 °F 100% 30.06 in 1.5 mi SE 18.4 mph - 0.68 in Rain Rain
1:53 AM 70.0 °F - 70.0 °F 100% 30.06 in 1.5 mi SE 13.8 mph - 0.74 in Rain Rain
2:17 AM 69.8 °F - 69.8 °F 100% 30.06 in 2.5 mi SSE 8.1 mph - 0.18 in Rain Heavy Rain
2:26 AM 69.8 °F - 69.8 °F 100% 30.05 in 3.0 mi SSW 4.6 mph - 0.21 in Rain Rain
2:53 AM 70.0 °F - 70.0 °F 100% 30.06 in 7.0 mi Calm Calm - 0.24 in Rain Light Rain
3:53 AM 70.0 °F - 70.0 °F 100% 30.05 in 10.0 mi Calm Calm - 0.00 in   Overcast
4:53 AM 70.0 °F - 70.0 °F 100% 30.06 in 9.0 mi North 3.5 mph - N/A   Scattered Clouds
5:53 AM 70.0 °F - 70.0 °F 100% 30.08 in 10.0 mi North 3.5 mph - N/A   Mostly Cloudy
6:53 AM 70.0 °F - 70.0 °F 100% 30.09 in 10.0 mi North 4.6 mph - N/A   Scattered Clouds
7:53 AM 72.0 °F - 72.0 °F 100% 30.11 in 10.0 mi Calm Calm - N/A   Scattered Clouds
8:53 AM 77.0 °F - 73.9 °F 90% 30.12 in 10.0 mi Calm Calm - N/A   Clear
9:53 AM 79.0 °F - 70.0 °F 74% 30.13 in 10.0 mi ESE 6.9 mph - N/A   Partly Cloudy
10:53 AM 79.0 °F - 69.1 °F 72% 30.13 in 10.0 mi East 8.1 mph - N/A   Partly Cloudy
11:53 AM 82.0 °F 85.9 °F 70.0 °F 67% 30.12 in 10.0 mi East 10.4 mph - N/A   Scattered Clouds
12:53 PM 77.0 °F - 72.0 °F 84% 30.10 in 10.0 mi NE 11.5 mph 19.6 mph N/A   Mostly Cloudy
1:07 PM 77.0 °F - 71.6 °F 83% 30.09 in 10.0 mi ENE 12.7 mph - N/A   Mostly Cloudy
1:53 PM 78.1 °F - 72.0 °F 81% 30.08 in 10.0 mi East 13.8 mph - N/A   Scattered Clouds
2:13 PM 75.2 °F - 73.4 °F 94% 30.08 in 10.0 mi East 10.4 mph - 0.00 in Rain Light Rain
2:53 PM 75.9 °F - 72.0 °F 87% 30.07 in 10.0 mi East 13.8 mph - 0.00 in   Scattered Clouds
3:53 PM 78.1 °F - 71.1 °F 79% 30.07 in 10.0 mi East 11.5 mph - N/A   Mostly Cloudy
4:53 PM 75.9 °F - 72.0 °F 87% 30.08 in 10.0 mi East 10.4 mph - 0.00 in Rain Light Rain
5:05 PM 75.2 °F - 73.4 °F 94% 30.09 in 2.5 mi East 10.4 mph - 0.00 in Rain Heavy Rain
5:07 PM 75.2 °F - 73.4 °F 94% 30.09 in 1.5 mi East 10.4 mph - 0.03 in Rain Heavy Rain
5:11 PM 73.4 °F - 73.4 °F 100% 30.09 in 0.5 mi East 15.0 mph 20.7 mph 0.18 in Fog , Rain Heavy Rain
5:34 PM 73.4 °F - 73.4 °F 100% 30.09 in 1.0 mi Variable 4.6 mph - 1.38 in Rain Heavy Rain
5:40 PM 73.4 °F - 73.4 °F 100% 30.09 in 2.0 mi East 4.6 mph - 1.45 in Rain Heavy Rain
5:49 PM 73.4 °F - 73.4 °F 100% 30.08 in 3.0 mi ENE 10.4 mph - 1.49 in Rain Rain
5:53 PM 73.9 °F - 73.0 °F 97% 30.09 in 3.0 mi ENE 8.1 mph - 1.50 in Rain Rain
6:09 PM 73.4 °F - 71.6 °F 94% 30.10 in 5.0 mi ESE 19.6 mph 27.6 mph 0.07 in Rain Rain
6:15 PM 73.4 °F - 71.6 °F 94% 30.10 in 8.0 mi SE 19.6 mph - 0.08 in Rain , Thunderstorm Light Thunderstorms and Rain
6:40 PM 73.4 °F - 71.6 °F 94% 30.11 in 2.0 mi East 25.3 mph 32.2 mph 0.22 in Rain , Thunderstorm Heavy Thunderstorms and Rain
6:51 PM 71.6 °F - 71.6 °F 100% 30.11 in 3.0 mi ESE 18.4 mph 27.6 mph 0.32 in Rain Rain
6:53 PM 73.0 °F - 72.0 °F 96% 30.11 in 3.0 mi ESE 19.6 mph 27.6 mph 0.33 in Rain Rain
7:53 PM 75.0 °F - 72.0 °F 90% 30.12 in 9.0 mi East 9.2 mph - N/A Rain Light Rain
8:34 PM 75.2 °F - 73.4 °F 94% 30.13 in 6.0 mi East 16.1 mph - 0.16 in Rain , Thunderstorm Thunderstorms and Rain
8:53 PM 75.9 °F - 72.0 °F 87% 30.12 in 9.0 mi ENE 13.8 mph 21.9 mph 0.20 in Rain Light Rain
9:53 PM 75.0 °F - 72.0 °F 90% 30.12 in 9.0 mi ENE 11.5 mph - 0.03 in Rain Light Rain
10:17 PM 75.2 °F - 73.4 °F 94% 30.12 in 1.0 mi East 23.0 mph 31.1 mph 0.07 in Rain Heavy Rain
10:25 PM 73.4 °F - 71.6 °F 94% 30.13 in 3.0 mi East 19.6 mph 31.1 mph 0.23 in Rain Heavy Rain
10:32 PM 73.4 °F - 73.4 °F 100% 30.13 in 1.0 mi East 25.3 mph - 0.34 in Rain Heavy Rain
10:38 PM 71.6 °F - 71.6 °F 100% 30.14 in 3.0 mi East 18.4 mph 28.8 mph 0.45 in Rain Rain
10:53 PM 71.1 °F - 71.1 °F 100% 30.13 in 4.0 mi East 15.0 mph 27.6 mph 0.54 in Rain Rain
11:02 PM 71.6 °F - 71.6 °F 100% 30.13 in 4.0 mi East 12.7 mph - 0.01 in Rain Rain
11:53 PM 73.9 °F - 72.0 °F 93% 30.11 in 2.0 mi ESE 25.3 mph 29.9 mph 0.05 in Rain Heavy Rain
11:56 PM 73.4 °F - 71.6 °F 94% 30.11 in 1.5 mi ESE 20.7 mph 29.9 mph 0.03 in Rain Heavy Rain